Location: Krasnoyarskiy Pitomnik
(51.1333°N, 71.6167°E)
Time: 08:37:40
(UTC+00:00)

Cosmos 2366 rocket - Pass Details

Date: 22 October 2021
Orbit: 955 x 996 km, 82.9° (Epoch: 06 December)

Event Time Altitude Azimuth Distance (km) Brightness Sun altitude
Rises 23:00:37 0° 350° (N) 3,715 7.1 -27.1°
Reaches altitude 10° 23:03:09 10° 352° (N) 2,766 6.4 -26.7°
Maximum altitude 23:09:31 79° 80° (E) 1,019 4.1 -25.7°
Drops below altitude 10° 23:15:53 10° 167° (SSE) 2,758 6.4 -24.8°
Sets 23:18:24 0° 168° (SSE) 3,703 7.0 -24.4°
